Location: Olsztyn
(53.7767°N, 20.4765°E)
Time: 17:54:45
(UTC+02:00)

A-11 Canister half - Pass Details

Date: 28 January 2022
Orbit: 1513 x 1686 km, 47.2° (Epoch: 24 May)

Event Time Altitude Azimuth Distance (km) Brightness Sun altitude
Rises 17:08:33 0° 244° (WSW) 4,760 13.9 -8.4°
Reaches altitude 10° 17:11:45 10° 240° (WSW) 3,754 12.6 -8.9°
Maximum altitude 17:20:49 54° 166° (SSE) 1,804 9.4 -10.2°
Enters shadow 17:29:22 11° 94° (E) 3,570 10.3 -11.4°
